TimeEDT,TemperatureF,Dew PointF,Humidity,Sea Level PressureIn,VisibilityMPH,Wind Direction,Wind SpeedMPH,Gust SpeedMPH,PrecipitationIn,Events,Conditions,WindDirDegrees,DateUTC
12:54 AM,71.1,66.0,84,29.79,10.0,Calm,Calm,-,N/A,,Clear,0,2013-08-31 04:54:00
1:54 AM,68.0,66.0,93,29.77,10.0,Calm,Calm,-,N/A,,Clear,0,2013-08-31 05:54:00
2:54 AM,66.0,64.9,96,29.78,9.0,Calm,Calm,-,N/A,,Clear,0,2013-08-31 06:54:00
3:54 AM,66.0,64.9,96,29.78,6.0,Calm,Calm,-,0.00,Rain,Light Rain,0,2013-08-31 07:54:00
4:54 AM,66.9,64.9,93,29.79,5.0,NNE,3.5,-,0.02,Rain,Light Rain,20,2013-08-31 08:54:00
5:54 AM,66.9,66.0,97,29.79,6.0,Calm,Calm,-,0.00,,Mostly Cloudy,0,2013-08-31 09:54:00
6:54 AM,66.9,66.0,97,29.80,6.0,Calm,Calm,-,N/A,,Overcast,0,2013-08-31 10:54:00
7:28 AM,68.0,66.2,94,29.81,6.0,Calm,Calm,-,N/A,,Mostly Cloudy,0,2013-08-31 11:28:00
7:54 AM,69.1,66.9,93,29.81,6.0,Calm,Calm,-,N/A,,Overcast,0,2013-08-31 11:54:00
8:54 AM,71.1,66.9,87,29.82,10.0,Calm,Calm,-,N/A,,Overcast,0,2013-08-31 12:54:00
9:11 AM,73.4,68.0,83,29.82,10.0,ENE,3.5,-,N/A,,Overcast,70,2013-08-31 13:11:00
9:30 AM,73.4,68.0,83,29.83,10.0,Calm,Calm,-,N/A,,Mostly Cloudy,0,2013-08-31 13:30:00
9:54 AM,77.0,69.1,76,29.83,10.0,Calm,Calm,-,N/A,,Scattered Clouds,0,2013-08-31 13:54:00
10:54 AM,79.0,66.9,66,29.82,10.0,Calm,Calm,-,N/A,,Clear,0,2013-08-31 14:54:00
11:54 AM,81.0,66.0,60,29.80,10.0,Variable,3.5,-,N/A,,Clear,0,2013-08-31 15:54:00
12:54 PM,80.1,66.0,62,29.79,10.0,Calm,Calm,-,N/A,,Overcast,0,2013-08-31 16:54:00
1:54 PM,79.0,66.9,66,29.79,10.0,South,3.5,-,N/A,,Overcast,190,2013-08-31 17:54:00
2:54 PM,73.0,69.1,87,29.79,8.0,SW,3.5,-,0.01,Rain,Light Rain,230,2013-08-31 18:54:00
3:54 PM,73.9,70.0,87,29.80,7.0,Calm,Calm,-,0.01,Rain,Light Rain,0,2013-08-31 19:54:00
4:54 PM,75.0,70.0,84,29.78,10.0,Calm,Calm,-,0.00,,Mostly Cloudy,0,2013-08-31 20:54:00
5:17 PM,73.4,71.6,94,29.79,2.5,Calm,Calm,-,0.03,Rain,Light Rain,0,2013-08-31 21:17:00
5:24 PM,73.4,71.6,94,29.79,4.0,Calm,Calm,-,0.04,Rain,Light Rain,0,2013-08-31 21:24:00
5:33 PM,73.4,71.6,94,29.79,5.0,Calm,Calm,-,0.05,Rain,Light Rain,0,2013-08-31 21:33:00
5:44 PM,73.4,71.6,94,29.79,10.0,Calm,Calm,-,0.05,,Overcast,0,2013-08-31 21:44:00
5:54 PM,73.9,71.1,91,29.78,10.0,Calm,Calm,-,0.05,,Overcast,0,2013-08-31 21:54:00
6:49 PM,73.4,71.6,94,29.79,8.0,Calm,Calm,-,N/A,,Mostly Cloudy,0,2013-08-31 22:49:00
6:54 PM,73.0,71.1,93,29.78,8.0,Calm,Calm,-,N/A,,Overcast,0,2013-08-31 22:54:00
7:12 PM,73.4,71.6,94,29.79,5.0,Calm,Calm,-,N/A,,Overcast,0,2013-08-31 23:12:00
7:33 PM,73.4,71.6,94,29.79,5.0,Calm,Calm,-,N/A,Thunderstorm,Overcast,0,2013-08-31 23:33:00
7:47 PM,71.6,71.6,100,29.80,5.0,Calm,Calm,-,0.00,Rain-Thunderstorm,Light Rain,0,2013-08-31 23:47:00
7:54 PM,72.0,71.1,97,29.79,5.0,SE,3.5,-,0.00,Rain-Thunderstorm,Light Rain,130,2013-08-31 23:54:00
8:08 PM,71.6,71.6,100,29.80,6.0,Calm,Calm,-,0.00,Rain-Thunderstorm,Light Rain,0,2013-09-01 00:08:00
8:37 PM,71.6,71.6,100,29.81,5.0,Calm,Calm,-,0.02,Thunderstorm,Overcast,0,2013-09-01 00:37:00
8:54 PM,72.0,70.0,93,29.80,5.0,Calm,Calm,-,0.02,,Overcast,0,2013-09-01 00:54:00
9:03 PM,71.6,69.8,94,29.80,6.0,Calm,Calm,-,N/A,,Overcast,0,2013-09-01 01:03:00
9:54 PM,71.1,70.0,96,29.80,5.0,Calm,Calm,-,0.00,,Overcast,0,2013-09-01 01:54:00
10:51 PM,71.6,69.8,94,29.80,6.0,Calm,Calm,-,N/A,,Mostly Cloudy,0,2013-09-01 02:51:00
10:54 PM,71.1,70.0,96,29.79,6.0,Calm,Calm,-,N/A,,Mostly Cloudy,0,2013-09-01 02:54:00
11:11 PM,71.6,69.8,94,29.79,2.5,Calm,Calm,-,0.01,,Mostly Cloudy,0,2013-09-01 03:11:00
11:19 PM,69.8,69.8,100,29.79,5.0,Calm,Calm,-,0.01,,Mostly Cloudy,0,2013-09-01 03:19:00
11:54 PM,70.0,69.1,97,29.79,4.0,Calm,Calm,-,0.01,,Mostly Cloudy,0,2013-09-01 03:54:00